Apple Cup Yearling Classic - Loft Setrtling 5-11-18

Station: loft Inventory - T Race

Distance: 10 Miles    

Release: 11-May-2018 09:00

Weather Release:    Arrival: Cool and Overcast

Wind at Release:     Wind at Arrival:

Temp at Release: °    Temp at Arrival: °

Lofts: 140

Birds: 437

Clocked: 433

732 Birds In The Loft! The rest will be settled soon!
Drops Pos Breeder Pigeon Name Color Sex Ent Arrival Speed To Win Eligible
304 M Merrills Loft - ID 0839-AU18-WHI DC H 3 11:34:29.40 113.923 00:05:48 Yes
305 Eastern Pearl Loft - VA 0374-AU18-EPL 🈚️量 374 BCPD H 3 11:34:29.99 113.916 00:05:48 Yes
306 Charlie Barbiere - NJ 2328-IF18-BSC BB H 3 11:34:31.79 113.894 00:05:50 Yes
307 Miami Syndicate Loft - FL 1012-AU18-FMI BB H 17 11:34:32.62 113.884 00:05:51 Yes
308 Ken & Roly - NM 2726-AU18-VITA BB H 8 11:34:34.27 113.863 00:05:53 Yes
309 Taylor Loft - NM 0747-AU18-NMRP BB H 1 11:34:35.19 113.852 00:05:54 Yes
310 Hawaii Syndicate - HI 0182-AU18-FIA BB H 4 11:34:36.10 113.841 00:05:55 Yes
311 Sonder Loft - CA 8958-AU18-JEDS BC H 5 11:34:38.59 113.810 00:05:57 Yes
312 Transilvania Loft - NV 0003-AU18-CFL SPLH H 4 11:34:40.30 113.789 00:05:59 Yes
313 Eastern Pearl Loft - VA 0360-AU18-EPL 🈚️量 360 BC H 4 11:34:41.73 113.772 00:06:00 Yes
314 Kwan Loft - CA 0862-AU18-HP GRIZ H 7 11:34:43.29 113.753 00:06:02 Yes
315 Thunder Birds/Rodriguez Breeding Loft - TX 18802-AU18-ARPU BB H 4 11:34:44.39 113.739 00:06:03 Yes
316 G T Family Loft - IL 0126-AU18-GT DC H 3 11:34:45.08 113.731 00:06:04 Yes
317 American Lofts - OR 2554-AU18-CORP OPAL H 8 11:34:46.33 113.716 00:06:05 Yes
318 K M P Syndicate - CA 0124-AU18-TOPP BB H 3 11:34:47.61 113.700 00:06:06 Yes
319 Floridian Loft - FL 2504-AU18-SCHE DEN 04 BB H 16 11:34:47.94 113.696 00:06:06 Yes
320 Sam A Miller - KY 4114-AU18-FOYS BCWF H 2 11:34:48.02 113.695 00:06:06 Yes
321 Tierney Family Loft - MD 0130-AU18-TL BB H 2 11:34:48.26 113.692 00:06:07 Yes
322 Shang N Dennis Yoh - CA 8841-AU18-JEDS BC H 2 11:34:50.51 113.664 00:06:09 Yes
323 A B C Loft2 - NY 51606-AU18-ARPU BC H 9 11:34:52.40 113.641 00:06:11 Yes
324 House Of Paine - CA 1805-AU18-GSF BC H 2 11:34:52.54 113.640 00:06:11 Yes
325 Floridian Loft - FL 2586-AU18-SCHE DEN 86 BB H 17 11:34:53.40 113.629 00:06:12 Yes
326 Danny Lum - HI 8836-AU18-NIC BC H 2 11:34:53.69 113.625 00:06:12 Yes
327 Ramon Guerrero & Refujio Martinez - WA 0077-AU18-PSF BB H 2 11:34:55.26 113.606 00:06:14 Yes
328 Vpslb.Com - CA 5203-AU18-COM RBAR H 3 11:34:55.90 113.598 00:06:14 Yes
329 Heinsohn Boys - TX 0413-AU18-SAL BB H 3 11:34:56.36 113.593 00:06:15 Yes
330 Drama Queen Loft - TX 1071-AU18-GCL BB H 4 11:34:57.92 113.574 00:06:16 Yes
331 Warbird Loft - CO 8605-AU18-FH DC H 3 11:34:59.57 113.554 00:06:18 Yes
332 Fl Lin Loft - FL 65310-AU18-ARPU BB H 3 11:35:00.50 113.542 00:06:19 Yes
333 Hawaii Syndicate - HI 0192-AU18-FIA BB H 5 11:35:04.09 113.498 00:06:23 Yes
334 Van Den Bossche Loft - ME 8867-IF18-CMP Four Spirits in the Wind BB H 3 11:35:04.18 113.497 00:06:23 Yes
335 Sam A Miller - KY 4118-AU18-FOYS BB H 3 11:35:05.74 113.478 00:06:24 Yes
336 Rampage Racing - TX 4603-AU18-VITA BC H 3 11:35:08.32 113.447 00:06:27 Yes
337 Dj Loft Of Utah - UT 19403-AU18-ARPU Senhor da guerra DC H 9 11:35:09.47 113.433 00:06:28 Yes
338 Gloriosos Loft - TX 2102-AU18-DALL BB H 4 11:35:10.43 113.421 00:06:29 Yes
339 Someday Loft - WA 8644-AU18-SWWR Bruce BC C 1 11:35:12.09 113.401 00:06:31 Yes
340 Blaco & Williamson - CA 3884-AU18-COM DC H 3 11:35:12.73 113.393 00:06:31 Yes
341 American Lofts - OR 2538-AU18-CORP GRIZ H 9 11:35:13.34 113.386 00:06:32 Yes
342 Frank Feenstra - MI 1906-AU18-GRM BB H 1 11:35:13.83 113.380 00:06:32 Yes
343 American Lofts - OR 2562-AU18-CORP OPAL H 10 11:35:14.66 113.370 00:06:33 Yes
344 Western Loft - CA 0301-AU18-SFR BB H 4 11:35:15.35 113.361 00:06:34 Yes
345 Medina Loft - TX 1835-AU18-JJ BB H 3 11:35:16.69 113.345 00:06:35 Yes
346 Csa - MS 6502-AU18-FOYS BB H 2 11:35:16.74 113.344 00:06:35 Yes
347 Csa - MS 6501-AU18-FOYS BC H 3 11:35:17.65 113.333 00:06:36 Yes
348 Valdes & Rudy Loft - FL 3822-AU18-SCHE Rudy BC H 4 11:35:17.97 113.329 00:06:36 Yes
349 Royers Loft - UT 0127-AU18-SLI BB H 3 11:35:18.99 113.317 00:06:37 Yes
350 Heinsohn Boys - TX 0106-AU18-EZ BC H 4 11:35:21.42 113.287 00:06:40 Yes
351 Bird Dog Syndicate 2 - CA 0101-AU18-BURG BB H 2 11:35:22.86 113.270 00:06:41 Yes
352 American Lofts - OR 2561-AU18-CORP SPLH H 11 11:35:24.60 113.249 00:06:43 Yes
353 First Flight Loft - GA 18502-AU18-ARPU I'm An Angel DC H 1 11:35:24.92 113.245 00:06:43 Yes
354 G T Family Loft - IL 0117-AU18-GT BCSP H 4 11:35:25.43 113.239 00:06:44 Yes
355 Dj Loft Of Utah - UT 19405-AU18-ARPU Hollywood x Schellens SPLH H 10 11:35:28.51 113.201 00:06:47 Yes
356 Siguaraya & El Rey De Los Cielos - FL 29127-AU18-ARPU Machete RB H 5 11:35:29.47 113.190 00:06:48 Yes
357 Black Oak Loft - AR 0013-AU18-HYMS Black Oak 13 BB H 6 11:35:30.67 113.175 00:06:49 Yes
358 House Of Paine - CA 1818-AU18-GSF BBWF H 3 11:35:33.70 113.138 00:06:52 Yes
359 @ J A Z Z Y - L O F T - FL 4336-AU18-JEDS Jumper BCWF H 3 11:35:35.14 113.121 00:06:54 Yes
360 A P C Loft - TX 18093-AU18-APC BGRZ H 9 11:35:35.73 113.114 00:06:54 Yes
361 Transilvania Loft - NV 0005-AU18-CFL BB H 5 11:35:36.07 113.110 00:06:54 Yes
362 Sooner Challenge - OK 8833-AU18-TRPC 16521 X 6989 PIED H 3 11:35:39.09 113.073 00:06:58 Yes
363 Ken & Roly - NM 2682-AU18-VITA BB H 9 11:35:39.41 113.069 00:06:58 Yes
364 Joe Sanford - CA 7410-AU18-JEDS BB H 5 11:35:40.80 113.052 00:06:59 Yes
365 A B C Loft2 - NY 51605-AU18-ARPU BC H 10 11:35:44.09 113.013 00:07:03 Yes
366 Irishsyndicatelofts - AZ 0101-AU18-IRSH BB H 5 11:35:47.32 112.974 00:07:06 Yes
367 Fl Lin Loft - FL 65339-AU18-ARPU BB H 4 11:35:48.48 112.960 00:07:07 Yes
368 Vpslb.Com - CA 5204-AU18-COM RGRZ H 4 11:35:50.81 112.931 00:07:09 Yes
369 John Gutierrez - NM 0810-AU18-GUTZ BC H 2 11:36:24.85 112.522 00:07:43 Yes
370 Floridian Loft - FL 2581-AU18-SCHE DEN 81 BCWF H 18 11:36:25.98 112.508 00:07:44 Yes
371 Black Oak Loft - AR 0021-AU18-HYMS Black Oak 21 RB H 7 11:36:28.92 112.473 00:07:47 Yes
372 Crooked River Challenge - OR 2230-AU18-CORP BB H 2 11:36:39.64 112.345 00:07:58 Yes
373 Marengo Creek Farms - AL 3025-AU18-MCF BCWF H 4 11:36:40.98 112.329 00:07:59 Yes
374 Shang N Dennis Yoh - CA 8847-AU18-JEDS DC H 3 11:36:42.18 112.314 00:08:01 Yes
375 Baldwin & Tilson - NC 8033-AU18-TENT RB H 5 11:36:42.91 112.306 00:08:01 Yes
376 Fl Lin Loft - FL 65331-AU18-ARPU BB H 5 11:36:43.41 112.300 00:08:02 Yes
377 Blaco & Williamson - CA 3882-AU18-COM GRIZ H 4 11:36:44.85 112.282 00:08:03 Yes
378 Joe Sanford - CA 7404-AU18-JEDS BB H 6 11:36:45.63 112.273 00:08:04 Yes
379 Ken & Roly - NM 2728-AU18-VITA BC H 10 11:36:47.42 112.252 00:08:06 Yes
380 Siguaraya & El Rey De Los Cielos - FL 29106-AU18-ARPU Majestic BBWF H 6 11:36:48.98 112.233 00:08:07 Yes
381 Hollywood Lou Loft - FL 0265-AU18-CCIF BB H 3 11:36:49.62 112.226 00:08:08 Yes
382 Eastern Pearl Loft - VA 0369-AU18-EPL 🈚️量 369 BC H 5 11:36:50.82 112.211 00:08:09 Yes
383 Kim Wong - VT 17430-AU18-ARPU BC H 2 11:36:54.31 112.170 00:08:13 Yes
384 Marengo Creek Farms - AL 3047-AU18-MCF BB H 5 11:36:56.71 112.141 00:08:15 Yes
385 American Lofts - OR 2558-AU18-CORP YELW H 12 11:36:56.99 112.138 00:08:15 Yes
386 Transilvania Loft - NV 0015-AU18-CFL BC H 6 11:36:58.28 112.122 00:08:17 Yes
387 Racing Pigeon Mall - WA 0804-AU18-RPM BB H 2 11:37:00.21 112.099 00:08:19 Yes
388 Black Oak Loft - AR 0012-AU18-HYMS Black Oak 12 BC H 8 11:37:00.43 112.097 00:08:19 Yes
389 Igor & Sons/Evergreen Loft - OR 0646-AU18-PNW BB H 4 11:37:02.51 112.072 00:08:21 Yes
390 Marengo Creek Farms - AL 3012-AU18-MCF BB H 6 11:37:07.06 112.018 00:08:26 Yes
391 Eastern Pearl Loft - VA 0376-AU18-EPL 🈚️量 376 BC H 6 11:37:22.47 111.835 00:08:41 Yes
392 Burge Family Loft - CA 0121-AU18-BURG BC H 5 11:37:45.11 111.568 00:09:04 Yes
393 Alan Porter - WI 0431-AU18-RRR BB H 6 11:37:45.94 111.558 00:09:04 Yes
394 Dj Loft Of Utah - UT 19406-AU18-ARPU Mona Lisa IV BB H 11 11:37:53.83 111.465 00:09:12 Yes
395 Dekeratry Loft - TX 8432-AU18-HOT BGRZ H 2 11:37:54.90 111.452 00:09:13 Yes
396 Ceyx Loft - CA 0716-AU18-CEYX DC H 2 11:37:55.78 111.442 00:09:14 Yes
397 J H C - AL 6507-AU18-ARPU BB H 3 11:37:56.07 111.439 00:09:14 Yes
398 Miami Syndicate Loft - FL 1007-AU18-FMI BC H 18 11:37:58.72 111.407 00:09:17 Yes
399 John Partridge - CA 1019-AU18-PASO SPLH H 5 11:37:59.52 111.398 00:09:18 Yes
400 Hollywood Lou Loft - FL 0267-AU18-CCIF BC H 4 11:38:03.13 111.356 00:09:22 Yes
401 Marengo Creek Farms - AL 3042-AU18-MCF PIED H 7 11:38:09.77 111.278 00:09:28 Yes
402 Quejado/Fernandez/Mutuc - CA 2269-AU18-TCH BB H 3 11:38:32.91 111.007 00:09:51 Yes
403 Siguaraya & El Rey De Los Cielos - FL 29120-AU18-ARPU Deer BB H 7 11:38:33.87 110.996 00:09:52 Yes

There are 968 bird records

Note: These Race Results are unofficial and subject to change until verified by the Race Committee and declared final.